Flag for Czech Republic Weather past 2 weeks in Plzen, Czech Republic

Now
70 °F

Partly sunny.


Feels Like: 70 °F
Forecast: 58 / 66 °F
Wind: 9 mph from West

Location: Kocelovice

Current Time: Jul 28, 2015 at 5:46:01 PM

Latest Report: Jul 28, 2015 at 5:00 PM


Visibility: 44 mi

Pressure: 29.71 "Hg

Humidity: 40%

Dew point: 45 °F

Location of PlzenLocation

Historic Weather in Plzen — Graph

°F

Plzen temperature yesterday

Maximum temperature yesterday: 69 °F (at 4:00 PM)
Minimum temperature yesterday: 54 °F (at 3:00 AM)
Average temperature yesterday: 61 °F

Past Weeks' High & Low Weather Summary

 TemperatureHumidityPressure
High94 °F (Jul 22, 4:00 PM)96% (Jul 16, 3:00 AM)30.13 "Hg (Jul 16, 3:00 AM)
Low52 °F (Jul 28, 6:00 AM)24% (Jul 26, 5:00 PM)29.64 "Hg (Jul 25, 3:00 AM)
Average70 °F60%29.91 "Hg
* Reported Jul 13 4:00 PM — Jul 28 4:00 PM, Plzen, Weather by CustomWeather, © 2015

Note: Actual official high and low records may vary slightly from our data, if they occured in-between our weather recording intervals... More about our weather records

Advertising

Plzen weather history for previous 24 hours

 ConditionsComfort  
Time TempWeatherWind HumidityBarometerVisibility
4:00 PM
Tue, Jul 28
68 °FOvercast.9 mph42%29.72 "Hg43 mi
3:00 PM69 °FOvercast.10 mph40%29.72 "Hg43 mi
2:00 PM68 °FOvercast.12 mph43%29.73 "Hg43 mi
1:00 PM68 °FOvercast.12 mph45%29.73 "Hg43 mi
12:00 PM66 °FOvercast.12 mph51%29.75 "Hg43 mi
11:00 AM65 °FOvercast.10 mph56%29.75 "Hg37 mi
10:00 AM65 °FPartly sunny.8 mph58%29.75 "Hg37 mi
8:00 AM57 °FLight rain. Overcast.3 mph82%29.78 "Hg9 mi
7:00 AM56 °FLight rain. Cloudy.3 mph76%29.78 "Hg12 mi
6:00 AM52 °FCool.N/A95%29.78 "Hg12 mi
5:00 AM54 °FCool.2 mph76%29.77 "Hg12 mi
4:00 AM54 °FCool.3 mph78%29.78 "Hg12 mi
3:00 AM55 °FCool.3 mph79%29.79 "Hg12 mi
2:00 AM53 °FCool.2 mph91%29.80 "Hg12 mi
1:00 AM55 °FCool.3 mph88%29.80 "Hg12 mi
12:00 AM57 °FCool.N/A84%29.79 "Hg12 mi
10:00 PM
Mon, Jul 27
58 °FPassing clouds.5 mph84%29.78 "Hg37 mi
9:00 PM58 °FThunderstorms. Passing clouds.3 mph89%29.75 "Hg47 mi
8:00 PM59 °FThundershowers. Overcast.6 mph91%29.72 "Hg3 mi
7:00 PM62 °FPartly sunny.N/A84%29.69 "Hg31 mi
6:00 PM61 °FThunderstorms. Partly sunny.5 mph86%29.69 "Hg43 mi
5:00 PM62 °FThundershowers. Overcast.9 mph80%29.65 "Hg1 mi
Weather by CustomWeather, © 2015

See weather overviewHow to use our weather pages